Probability
0 0 0 0 0 0 0 0 0 0 0 0 0 0 0 0 0 0 0 0 0 0 0 0 0 0 0 0 0 0 0 1 1 1 0 0 0 0 0 0 0 0 0 0
0 0 0 0 0 0 0 0 0 0 0 0 0 0 0 0 0 0 0 0 0 0 0 0 0 0 0 0 0 0 0 0 1 2 1 0 0 0 0 0 0 0 0 0
0 0 0 0 0 0 0 0 0 0 0 0 0 0 0 0 0 0 0 0 0 0 0 0 0 0 0 0 0 0 0 0 1 2 2 1 0 0 0 0 0 0 0 0
0 0 0 0 0 0 0 0 0 0 0 0 0 0 0 0 0 0 0 0 0 0 0 0 0 0 0 0 0 0 0 0 1 2 2 1 0 0 0 0 0 0 0 0
0 0 0 0 0 0 0 0 0 0 0 0 0 0 0 0 0 0 0 0 0 0 0 0 0 0 0 0 0 0 0 0 1 2 2 1 0 0 0 0 0 0 0 0
0 0 0 0 0 0 0 0 0 0 0 0 0 0 0 0 0 0 0 0 0 0 0 0 0 0 0 0 0 0 0 0 0 1 2 1 0 0 0 0 0 0 0 0
0 0 0 0 0 0 0 0 0 0 0 0 0 0 0 0 0 0 0 0 0 0 0 0 0 0 0 0 0 0 0 0 0 1 2 1 0 0 0 0 0 0 0 0
0 0 0 0 0 0 0 0 0 0 0 0 0 0 0 0 0 0 0 0 0 0 0 0 0 0 0 0 0 0 0 0 0 0 1 1 0 0 0 0 0 0 0 0
0 0 0 0 0 0 0 0 0 0 0 0 0 0 0 0 0 0 0 0 0 0 0 0 0 0 0 0 0 0 0 0 0 0 0 0 0 0 0 0 0 0 0 0
0 0 0 0 0 0 0 0 0 0 0 0 0 0 0 0 0 0 0 0 0 0 0 0 0 0 0 0 0 0 0 0 0 0 0 0 0 0 0 0 0 0 0 0
0 0 0 0 0 0 0 0 0 0 0 0 0 0 0 0 0 0 0 0 0 0 0 0 0 0 0 0 0 0 0 0 0 0 0 0 0 0 0 0 0 0 0 0
0 0 0 0 0 0 0 0 0 0 0 0 0 0 0 0 0 0 0 0 0 0 0 0 0 0 0 0 0 0 0 0 0 0 0 0 0 0 0 0 0 0 0 0
0 0 0 0 0 0 0 0 0 0 0 0 0 0 0 0 0 0 0 0 0 0 0 0 0 0 0 0 0 0 0 0 0 0 0 0 0 0 0 0 0 0 0 0
0 0 0 0 0 0 0 0 0 0 0 0 0 0 0 0 0 0 0 0 0 0 0 0 0 0 0 0 0 0 0 0 0 0 0 0 0 0 0 0 0 0 0 0
0 0 0 0 0 0 0 0 0 0 0 0 0 0 0 0 0 0 0 0 0 0 0 0 0 0 0 0 0 0 0 0 0 0 0 0 0 0 0 0 0 0 0 0
0 0 0 0 0 0 0 0 0 0 0 0 0 0 0 0 0 0 0 0 0 0 0 0 0 0 0 0 0 0 0 0 0 0 0 0 0 0 0 0 0 0 0 0
0 0 0 0 0 0 0 0 0 0 0 0 0 0 0 0 0 0 0 0 0 0 0 0 0 0 0 0 0 0 0 0 0 0 0 0 0 0 0 0 0 0 0 0
0 0 0 0 0 0 0 0 0 0 0 0 0 0 0 0 0 0 0 0 0 0 0 0 0 0 0 0 0 0 0 0 0 0 0 0 0 0 0 0 0 0 0 0
0 0 0 0 0 0 0 0 0 0 0 0 0 0 0 0 0 0 0 0 0 0 0 0 0 0 0 0 0 0 0 0 0 0 0 0 0 0 0 0 0 0 0 0
0 0 0 0 0 0 0 0 0 0 0 0 0 0 0 0 0 0 0 0 0 0 0 0 0 0 0 0 0 0 0 0 0 0 0 0 0 0 0 0 0 0 0 0
0 0 0 0 0 0 0 0 0 0 0 0 0 0 0 0 0 0 0 0 0 0 0 0 0 0 0 0 0 0 0 0 0 0 0 0 0 0 0 0 0 0 0 0
0 0 0 0 0 0 0 0 0 0 0 0 0 0 0 0 0 0 0 0 0 0 0 0 0 0 0 0 0 0 0 0 0 0 0 0 0 0 0 0 0 0 0 0
0 0 0 0 0 0 0 0 0 0 0 0 0 0 0 0 0 0 0 0 0 0 0 0 0 0 0 0 0 0 0 0 0 0 0 0 0 0 0 0 0 0 0 0
0 0 0 0 0 0 0 0 0 0 0 0 0 0 0 0 0 0 0 0 0 0 0 0 0 0 0 0 0 0 0 0 0 0 0 0 0 0 0 0 0 0 0 0
0 0 0 0 0 0 0 0 0 0 0 0 0 0 0 0 0 0 0 0 0 0 0 0 0 0 0 0 0 0 0 0 0 0 0 0 0 0 0 0 0 0 0 0
0 0 0 0 0 0 0 0 0 0 0 0 0 0 0 0 0 0 0 0 0 0 0 0 0 0 0 0 0 0 0 0 0 0 0 0 0 0 0 0 0 0 0 0
Wind_Speed
2 3 4 5 5 3 4 5 6 4 3 6 9 10 8 6 7 7 6 5 4 4 2 2 2 3 2 2 2 2 1 1 1 1 1 1 1 1 1 1 1 2 2 2
4 4 3 2 3 3 5 6 6 3 2 5 8 11 8 7 8 7 7 6 5 4 3 3 3 3 3 2 2 2 2 1 1 1 1 1 1 1 1 2 2 2 2 2
4 1 2 4 4 4 4 5 4 4 4 4 7 9 8 6 6 6 5 5 4 4 4 3 3 3 3 2 2 2 2 2 2 2 1 1 1 1 1 2 2 2 3 3
2 1 3 4 4 5 4 2 3 4 4 3 3 6 5 5 5 5 4 4 4 4 4 3 3 3 3 2 2 2 2 2 2 2 2 3 2 3 3 2 2 3 3 4
3 2 3 4 3 3 1 0 2 3 4 5 5 6 5 4 6 4 3 3 3 3 3 3 3 3 2 1 1 2 2 3 3 3 3 4 4 3 2 3 3 4 3 4
1 0 1 1 0 1 2 2 1 2 3 6 5 7 6 3 4 3 2 2 2 2 2 2 2 1 1 1 1 1 2 2 3 4 4 4 5 4 4 4 4 3 3 3
2 2 1 1 2 3 3 3 2 3 4 5 2 6 6 1 2 3 3 2 1 1 1 1 1 1 1 1 1 2 2 3 3 4 4 4 5 5 5 5 4 4 4 4
4 4 3 1 2 3 4 4 3 4 4 2 3 7 3 0 1 2 2 2 1 1 0 1 1 1 2 2 2 2 2 3 3 3 4 4 4 4 4 5 5 5 4 4
4 2 2 0 1 2 4 3 1 1 1 5 5 4 4 3 2 2 1 1 1 1 1 1 2 2 2 2 2 3 3 3 3 3 4 4 4 4 5 5 5 4 4 4
2 3 1 1 2 1 1 3 3 4 4 5 4 5 3 3 3 2 1 1 2 2 2 2 2 2 2 2 2 3 3 3 3 4 4 3 4 4 4 5 5 5 5 5
2 3 2 3 4 4 4 4 3 3 3 5 5 2 1 2 2 2 2 2 2 3 3 3 2 2 2 2 2 3 3 3 3 3 4 4 4 4 4 4 5 5 5 5
2 2 3 3 1 2 3 4 5 4 4 4 5 4 2 1 1 2 4 4 3 4 4 3 2 2 2 3 3 3 3 3 3 4 4 4 4 4 4 4 5 5 5 5
5 4 3 3 4 3 4 4 4 2 2 5 6 5 3 0 2 3 4 4 4 4 3 3 2 2 2 3 3 3 4 4 4 4 4 4 5 4 5 5 5 5 5 5
3 3 5 5 1 5 6 6 6 6 6 7 10 9 5 5 6 6 6 5 4 4 3 3 3 3 3 3 4 4 4 4 4 4 4 5 5 5 5 5 5 5 5 6
3 4 4 4 2 3 6 8 10 11 10 10 9 10 11 9 8 8 7 6 5 5 4 4 4 4 3 4 4 4 4 4 4 4 5 5 5 5 5 5 5 5 5 6
2 3 3 4 3 4 7 10 11 12 11 13 12 14 10 7 6 7 7 6 6 6 5 5 5 5 4 4 4 4 4 4 4 5 5 5 5 5 5 5 6 5 5 5
4 4 4 4 2 4 9 10 12 9 9 10 12 10 6 7 7 8 8 7 7 7 6 6 6 5 5 4 4 4 4 4 4 5 5 5 5 6 6 6 6 6 5 5
5 4 2 2 2 9 3 2 8 10 10 12 11 9 8 8 9 9 8 7 7 6 6 6 5 5 5 4 4 4 4 4 4 5 5 5 5 6 6 6 6 6 5 5
4 5 3 3 5 8 4 4 6 7 8 9 12 11 9 6 7 6 5 5 6 6 6 5 5 4 4 4 3 3 4 4 4 5 5 5 5 6 6 6 6 6 5 5
1 3 4 4 6 7 2 3 3 4 6 5 7 9 6 3 5 3 2 4 6 5 4 4 3 3 3 3 3 3 4 4 5 5 5 5 5 6 6 6 6 5 5 5
5 4 6 7 7 8 1 4 6 5 2 1 4 6 5 6 6 5 5 5 5 4 4 3 3 3 3 3 3 3 4 5 4 5 5 5 5 5 5 5 5 5 4 4
8 7 8 7 8 8 6 7 7 3 2 2 3 4 5 7 7 6 6 5 5 4 3 3 3 3 3 3 3 4 4 4 4 4 5 5 4 4 4 4 4 4 4 4
8 7 5 8 7 1 6 6 4 2 3 4 4 5 5 6 7 7 6 5 5 4 4 3 3 3 3 3 3 4 4 4 4 4 4 4 4 3 3 4 4 3 3 3
5 3 4 7 9 6 7 8 7 6 6 6 6 5 6 7 7 7 6 5 4 4 3 3 3 3 4 3 3 4 4 3 3 4 4 3 3 3 3 3 3 3 3 3
5 7 6 8 8 6 7 9 9 7 7 7 6 6 7 7 7 6 6 5 4 4 3 3 4 4 4 3 4 4 3 3 3 3 3 3 2 2 2 2 2 3 3 3
8 9 9 8 6 6 6 5 6 7 7 7 7 7 6 7 7 6 6 5 4 4 3 3 4 4 4 3 4 4 3 3 3 3 3 2 2 2 2 2 2 3 3 5
Wind_Direction
144 185 195 201 218 254 225 236 248 261 304 272 259 265 260 247 236 237 236 230 227 229 218 192 186 180 177 170 165 161 159 152 156 178 213 219 235 259 290 306 312 310 314 313
165 204 219 208 196 201 217 237 253 268 299 281 275 272 264 245 242 241 240 238 235 231 209 187 185 187 190 185 183 191 193 198 199 219 244 263 286 274 286 287 286 295 299 299
186 117 169 178 181 205 226 241 254 269 295 258 282 263 232 225 233 236 238 240 238 235 224 199 193 194 198 205 215 223 223 221 225 226 220 217 232 246 253 273 280 293 296 290
168 172 184 186 205 232 233 246 246 255 261 259 271 273 229 219 227 225 225 230 237 231 223 204 202 203 210 222 238 244 241 234 227 219 222 228 241 256 273 281 283 287 283 281
158 163 187 203 221 230 205 92 243 253 254 264 230 252 251 210 228 228 225 231 230 229 220 208 209 215 221 229 245 251 251 248 235 227 229 237 248 261 272 274 278 285 282 278
123 133 285 230 114 178 154 170 194 221 235 246 228 236 255 212 226 224 226 239 235 226 215 209 198 208 222 233 248 253 248 257 249 236 235 241 252 259 264 270 276 280 277 274
167 165 138 206 162 153 193 211 225 217 223 238 171 238 257 264 241 248 261 277 271 224 203 198 201 227 252 262 270 266 258 261 261 251 246 248 252 255 258 267 269 274 273 274
195 195 176 199 227 198 197 221 237 254 257 265 206 240 257 9 274 274 274 274 258 202 203 231 255 265 269 276 277 277 272 264 264 263 259 255 254 256 260 263 267 267 270 274
205 191 106 167 310 221 183 199 291 261 288 265 242 255 263 207 240 257 253 246 239 276 279 274 279 286 284 280 283 283 282 277 272 271 271 264 260 259 262 265 266 267 269 273
205 202 175 152 179 92 292 158 179 209 242 258 257 253 261 215 223 229 243 255 275 291 292 292 289 296 299 295 295 293 290 290 296 290 280 274 271 269 267 266 266 269 272 272
207 190 164 184 207 195 169 178 204 208 255 263 268 255 31 239 223 248 286 292 286 287 289 290 296 303 303 296 294 298 300 301 303 302 300 289 281 278 272 268 268 271 272 269
183 206 207 208 92 312 246 217 200 221 220 239 268 272 78 246 259 286 299 299 292 288 290 287 284 289 296 298 298 300 301 304 309 308 302 301 291 285 279 276 275 273 272 269
168 185 194 187 187 192 219 217 212 214 205 219 237 248 109 88 287 291 293 294 290 285 287 285 276 277 285 292 296 298 301 308 309 307 304 306 297 289 286 285 283 279 274 270
171 202 230 242 239 173 204 207 201 202 221 231 238 258 269 289 297 299 296 292 284 274 274 276 274 274 281 289 293 297 302 305 306 303 301 301 303 300 293 288 286 282 277 272
199 222 232 263 271 219 229 223 210 217 230 241 252 256 273 287 289 292 293 289 281 276 274 268 268 273 280 285 290 294 296 299 302 298 298 302 304 303 298 292 289 285 280 274
196 211 214 243 234 241 255 243 224 229 236 244 261 268 276 288 286 285 286 279 270 268 272 269 266 268 272 277 283 287 289 293 296 295 297 302 303 302 300 299 294 288 283 277
179 178 207 236 238 265 254 231 212 216 221 223 239 254 281 287 286 283 282 271 263 267 273 269 266 263 268 271 273 276 281 288 289 289 291 295 298 299 300 300 295 291 286 279
173 176 200 238 217 239 249 145 201 219 236 227 244 262 270 280 294 285 270 258 264 269 269 269 267 266 267 269 269 273 277 278 282 284 288 293 294 294 297 296 292 290 286 279
202 180 186 210 241 265 258 191 185 209 251 224 234 254 271 298 295 269 239 250 268 273 273 271 266 261 261 262 267 273 277 279 277 280 288 294 295 293 293 293 295 295 288 277
143 181 192 201 233 246 216 139 161 183 252 202 222 247 263 269 272 291 314 284 281 282 278 276 268 260 257 261 264 267 275 277 278 285 290 292 292 289 290 292 293 291 284 279
169 184 206 216 238 260 207 141 164 210 262 193 231 243 236 230 256 301 300 290 285 285 281 270 256 254 257 257 253 262 271 275 283 288 289 289 290 289 291 293 293 291 286 284
185 186 197 200 222 242 148 160 203 246 351 261 254 245 241 255 274 280 281 282 281 278 271 259 256 263 265 254 249 261 271 280 285 285 286 290 292 294 293 295 295 293 289 284
210 205 198 207 227 311 175 209 237 262 255 262 260 261 258 267 273 275 276 275 272 267 262 258 255 265 269 260 254 262 277 284 288 285 287 292 298 298 300 299 301 302 301 291
212 202 220 245 254 252 241 248 251 245 255 270 268 264 259 259 266 269 269 269 267 266 262 256 251 258 270 277 276 270 278 281 283 284 290 294 297 302 309 305 301 302 304 304
203 180 212 246 264 282 254 235 243 253 258 261 261 256 252 253 260 261 263 262 261 264 262 253 247 256 268 281 281 280 278 273 277 282 289 294 295 301 310 314 316 307 306 308
199 196 204 235 227 230 255 243 242 249 254 256 261 263 255 246 253 258 258 256 253 251 250 251 253 257 268 276 280 284 277 268 271 279 286 291 296 301 305 310 321 329 318 334